Location: Newark
(43.9494°N, 6.8108°E)
Time: 11:01:38
(UTC+00:00)

Vanguard 1 Rocket - Visible Passes

Search period start: 14 October 2019 00:00
Search period end: 24 October 2019 00:00
Orbit: 650 x 4226 km, 34.3° (Epoch: 13 October)

Date Brightness Start Highest point End Pass type
(mag) Time Alt. Az. Time Alt. Az. Time Alt. Az.
14 Oct 11.2 18:03:28 10° W 18:23:48 32° SW 18:38:57 10° S visible
15 Oct 11.3 16:47:32 10° W 17:10:49 44° SW 17:29:08 10° SSE visible
15 Oct 11.5 19:25:57 10° W 19:37:05 16° WSW 19:46:22 10° SSW visible
16 Oct 11.4 18:06:31 10° W 18:25:12 27° SW 18:39:56 10° S visible
17 Oct 11.4 16:50:10 10° W 17:12:22 39° SW 17:30:40 10° SSE visible
17 Oct 11.7 19:33:23 10° WSW 19:38:19 11° WSW 19:42:56 10° SW visible
18 Oct 11.6 18:10:05 10° W 18:26:31 22° SW 18:40:17 10° S visible
19 Oct 11.6 16:53:02 10° W 17:13:51 33° SW 17:31:49 10° SSE visible
20 Oct 11.8 18:14:35 10° W 18:27:48 17° SW 18:39:33 10° SSW visible
21 Oct 11.8 16:56:15 10° W 17:15:16 28° SW 17:32:29 10° S visible
22 Oct 12.0 18:21:21 10° WSW 18:29:06 12° WSW 18:36:27 10° SW visible
23 Oct 12.0 16:59:59 10° W 17:16:40 23° SW 17:32:26 10° S visible
